Location: Putah Creek Observatory
(38.7021°N, 122.3865°W)
Time: 06:31:35
(UTC-07:00)

Daily predictions for brighter satellites

Satellite Brightness Start Highest point End
(mag) Time Altitude Azimuth Time Altitude Azimuth Time Altitude Azimuth
Cosmos 2242 Rocket 3.6 20:21:50 10° S 20:26:17 64° E 20:30:43 10° NNE
Cosmos 1315 Rocket 3.7 20:23:01 10° NNW 20:26:58 54° W 20:30:51 10° S
Intercosmos 25 Rocket 3.4 20:26:54 10° S 20:30:03 51° E 20:34:13 10° NNE
Cosmos 1455 4.2 20:27:00 10° SW 20:30:27 34° WNW 20:33:55 10° NNW
USA 267 3.4 20:27:47 10° NE 20:34:20 83° NW 20:40:53 10° SW
CZ-4B DEB 4.3 20:33:13 10° ESE 20:35:21 18° ENE 20:37:31 10° NNE
Cosmos 1655 Rocket 4.2 20:29:14 10° N 20:35:31 56° E 20:41:43 10° SSE
Cosmos 1933 3.6 20:34:58 10° SSE 20:38:49 46° E 20:42:40 10° NNE
Cosmos 2279 Rocket 4.0 20:36:57 10° S 20:43:06 67° E 20:49:17 10° NNE
Cosmos 968 Rocket 4.2 20:40:28 10° N 20:45:18 37° ENE 20:49:51 11° SE
Spot 2 Rocket 3.6 20:40:13 10° SSE 20:45:18 84° WSW 20:50:25 10° NNW
Cosmos 2219 Rocket 3.9 20:43:24 10° ESE 20:45:22 12° E 20:47:34 10° ENE
SAR-Lupe-4 4.0 20:47:02 10° SE 20:50:26 43° ENE 20:53:51 10° N
Resurs 01 Rocket 2.1 20:46:18 10° S 20:50:42 63° WSW 20:55:09 10° NNW
Cosmos 1862 3.3 20:48:14 10° N 20:52:17 75° E 20:56:20 10° SSE
FALCON 9 R/B 1.2 20:50:13 10° WSW 20:52:45 32° S 20:53:57 18° SE
Cosmos 1908 Rocket 4.3 20:51:00 10° NNE 20:54:56 33° ENE 20:58:06 14° SE
Cosmos 1428 Rocket 4.4 20:50:00 10° N 20:56:06 70° E 21:02:11 10° SSE
Meteor 1-29 3.2 20:55:01 10° NNE 20:58:22 45° E 21:01:40 10° S
Envisat 3.0 21:00:34 10° SSE 21:05:34 66° ENE 21:10:38 10° N
Helios 1A 2.9 21:02:17 10° SSE 21:06:31 80° ENE 21:10:47 10° N
Sich 1 Rocket 4.0 21:02:14 10° N 21:06:35 46° E 21:09:53 16° SSE
Cosmos 2263 Rocket 2.4 21:01:30 10° NNW 21:07:03 72° WSW 21:12:36 10° SSE
SAR-Lupe-1 4.1 21:04:51 15° SSE 21:07:41 62° ENE 21:11:15 10° N
USA 234 4.0 21:02:14 12° E 21:07:47 42° NNE 21:13:51 10° NW
Meteor 1-26 Rocket 4.4 21:02:58 10° S 21:08:31 56° E 21:14:11 10° NNE
OAO 3 Rocket 4.0 21:05:10 10° W 21:09:41 39° SSW 21:12:39 19° SE
Cosmos 1733 Rocket 3.5 21:06:11 10° NNW 21:10:37 65° W 21:15:01 10° S
Cosmos 1825 3.7 21:07:40 10° NNW 21:11:12 37° W 21:14:42 10° SSW
Okean 1-7 3.9 21:10:04 19° SE 21:12:14 29° E 21:16:02 10° NNE
Cosmos 1408 4.3 21:09:05 10° NNW 21:12:24 33° W 21:15:40 10° SSW
CZ-4B DEB 4.5 21:09:18 12° SSE 21:12:35 86° WSW 21:16:10 10° NNW
Cosmos 1939 Rocket 2.8 21:13:58 17° SSE 21:17:00 69° ENE 21:20:58 10° N
SEDSat Delta rocket 4.3 21:12:38 10° WSW 21:17:09 35° S 21:19:56 22° SE
Cosmos 1867 3.5 21:12:39 10° NNW 21:18:08 85° ENE 21:21:56 20° SSE
Cosmos 2322 Rocket 4.3 21:14:47 10° WSW 21:19:37 29° WNW 21:24:31 10° N
H-2A R/B 3.9 21:18:33 12° E 21:19:53 13° ENE 21:22:04 10° NE
Cosmos 2237 4.1 21:17:11 10° SSW 21:22:51 69° ESE 21:28:32 10° NNE
SeaSat 1 4.4 21:21:33 12° ENE 21:23:44 16° NE 21:26:36 10° NNE
CZ-4C R/B 4.3 21:19:05 10° NNW 21:24:39 24° NE 21:29:38 13° E
ERS-1 Rocket 3.3 21:22:00 23° SE 21:24:45 46° ENE 21:29:33 10° N
Cosmos 2360 Rocket 2.6 21:20:38 10° SSW 21:26:14 66° WNW 21:31:54 10° NNE
Okean 2 Rocket 4.0 21:23:56 10° NNE 21:28:01 32° ENE 21:29:11 28° ESE
SPOT 5 4.0 21:27:47 22° E 21:29:04 25° ENE 21:32:49 10° NNE
USA 186 4.1 21:29:38 10° SW 21:31:49 20° W 21:34:07 10° NW
COSMOS 2428 2.7 21:26:51 10° S 21:32:27 62° ESE 21:38:05 10° NNE
ATLAS 5 CENTAUR R/B 2.8 21:30:19 10° NW 21:36:21 63° WSW 21:40:58 20° SSE
Cosmos 1606 4.2 21:37:46 22° ENE 21:37:46 22° ENE 21:39:57 10° NE
Atlas Centaur 2 3.2 21:31:47 10° WSW 21:37:54 43° S 21:41:22 27° SE
Sakura Rocket 4.4 21:35:49 10° SW 21:38:10 20° S 21:38:10 20° S
Cosmos 1703 Rocket 3.6 21:36:46 10° S 21:41:12 83° W 21:45:38 10° N
Cosmos 1844 4.4 21:37:56 10° N 21:43:09 37° ENE 21:45:01 29° E
ARGOS 3.8 21:41:38 30° ESE 21:43:19 37° ENE 21:48:14 10° N
Lacrosse 4 Rocket 4.4 21:43:33 10° W 21:44:32 11° WSW 21:45:31 10° WSW
YAOGAN 6 2.5 21:43:48 44° SSE 21:44:52 90° N 21:48:29 10° NNW
Helios 1B rocket 4.1 21:41:39 10° N 21:45:24 35° WNW 21:49:07 10° SW
NOSS 3-1 (C) 3.3 21:43:25 10° SSW 21:48:57 58° ESE 21:55:06 10° NE
Meteor 1-25 Rocket 4.1 21:49:58 10° N 21:55:34 78° E 21:57:53 36° SSE
USA 229 DEB 4.3 21:49:24 10° SW 21:56:06 58° NW 22:02:57 10° NNE
USA 229 4.3 21:49:31 10° SW 21:56:13 58° NW 22:03:04 10° NNE
MOS 1-B Rocket 4.1 21:56:47 37° ESE 21:58:37 51° ENE 22:04:02 10° N
Meteor 1-14 Rocket 4.4 21:52:59 10° NNW 21:58:42 72° W 22:02:15 24° S
Meteor 1-20 Rocket 4.1 21:56:47 10° N 22:02:25 79° E 22:04:32 40° SSE
Cosmos 2151 Rocket 4.4 21:58:33 10° N 22:02:25 36° ENE 22:02:25 36° ENE
Cosmos 1777 Rocket 3.9 21:59:11 10° NNW 22:04:29 85° WSW 22:06:11 44° SSE
Cosmos 2237 Rocket 2.8 22:06:21 36° E 22:06:21 36° E 22:10:55 10° NE
NOSS 3-1 (A) 3.3 22:03:02 25° S 22:06:16 56° ESE 22:12:24 10° NE
Terra 3.5 22:07:06 19° ENE 22:07:06 19° ENE 22:10:13 10° NNE
SPOT 1/Viking Rocket 4.0 22:06:44 42° E 22:07:27 45° ENE 22:12:24 10° N
MetOp-A 4.0 22:06:04 44° SSE 22:07:51 85° ENE 22:13:14 10° NNW
Cosmos 1844 Rocket 2.6 22:02:32 10° NNW 22:08:08 78° ENE 22:09:37 50° SE
Cosmos 2333 4.4 22:03:20 10° SSW 22:09:02 74° WNW 22:14:50 10° NNE
Abrixas rocket 4.3 22:07:43 10° NW 22:10:18 21° NNE 22:10:33 21° NNE
Cosmos 2221 Rocket 4.3 22:07:57 19° SSW 22:10:54 51° W 22:15:15 10° N
Cosmos 2333 Rocket 2.2 22:10:05 45° SSE 22:11:36 60° ESE 22:17:17 10° NNE
Cosmos 2278 Rocket 3.0 22:07:17 10° N 22:12:27 35° ENE 22:13:17 33° ENE
YAOGAN 11 3.9 22:12:25 72° SSE 22:12:52 88° ENE 22:17:13 10° NNW
NOSS 0 Rocket 3.9 22:14:25 46° SSE 22:15:50 57° ESE 22:21:51 10° NNE
Meteor 2-6 Rocket 4.2 22:16:08 44° S 22:18:07 76° E 22:24:04 10° NNE
Cosmos 1633 4.0 22:20:13 10° N 22:22:24 31° NNE 22:22:24 31° NNE
H-2A R/B 3.5 22:24:54 26° NE 22:24:54 26° NE 22:27:45 10° N
Cosmos 2219 Rocket 2.2 22:24:55 23° SSW 22:28:30 78° WNW 22:34:09 10° NNE
Gbstr 26 Del rocket 4.3 22:23:17 10° SW 22:30:51 71° SE 22:38:59 10° NE
Cosmos 1782 3.8 22:35:37 43° W 22:35:53 43° W 22:39:45 10° N
Milstar 3 4.4 22:39:18 10° WSW 22:43:12 17° SSW 22:43:12 17° SSW
Cosmos 1346 Rocket 4.2 22:50:07 34° N 22:50:07 34° N 22:52:28 10° N
SL-08 RB Rocket 4.1 22:49:29 58° WNW 22:49:29 58° WNW 22:53:37 10° NNW
USA 234 3.4 22:49:35 54° SSW 22:50:36 60° SW 22:57:04 10° NW
Cosmos 1553 Rocket 3.9 22:50:50 68° S 22:51:43 88° W 22:57:58 10° N
SL-08 R/B 4.2 22:46:03 10° N 22:52:14 85° E 22:52:34 80° SE
H-2A R/B 2.2 22:59:11 65° WNW 22:59:11 65° WNW 23:03:38 10° NNW
SeaSat 1 2.7 23:01:20 65° NW 23:01:20 65° NW 23:05:39 10° NNW
Meteor 1-27 Rocket 3.9 23:04:40 64° W 23:05:01 65° W 23:10:35 10° N
SPOT 5 4.2 23:07:02 31° W 23:07:02 31° W 23:11:05 10° NW
Cosmos 2297 4.4 23:04:35 10° N 23:09:23 44° NE 23:09:23 44° NE
CZ-4C R/B 2.8 23:06:47 10° NNW 23:14:05 89° WSW 23:14:50 76° SSE
Cosmos 1937 Rocket 4.2 23:10:42 10° NNW 23:14:37 47° NNE 23:14:37 47° NNE
ATLAS CENTAUR R/B 4.3 23:22:04 10° NNE 23:22:04 10° NNE 23:22:08 10° NNE
DMSP B5D2-2 4.5 23:12:57 10° N 23:17:40 61° NW 23:17:40 61° NW
Cosmos 1386 Rocket 4.5 23:16:54 10° N 23:22:57 80° NNW 23:22:57 80° NNW
ASTEX 1 4.4 23:27:06 43° WNW 23:27:06 43° WNW 23:30:57 10° NNW
Atlas Centaur 2 4.1 23:20:35 10° WSW 23:24:00 25° SW 23:24:00 25° SW
SL-16 R/B 3.1 23:31:30 41° NNE 23:31:30 41° NNE 23:35:08 10° NNE
Cosmos 1709 Rocket 4.3 23:26:09 10° N 23:31:36 61° NE 23:31:36 61° NE
Terra 3.4 23:45:58 31° NW 23:45:58 31° NW 23:48:48 10° NNW
Cosmos 2237 Rocket 3.8 23:48:04 25° W 23:49:49 30° WNW 23:54:47 10° N
